Theta_e
343 345 343 342 340 338 337 338 340 346 347 341 341 338 338 341 343 344 349 344 341 341 340 341 341 340 340 339 338 338 338 335 337 336 336 336 336 336
343 344 343 343 340 338 337 338 338 338 343 337 337 337 337 338 339 343 343 341 341 339 339 340 340 339 338 338 338 338 337 336 337 337 337 336 336 335
340 341 343 341 341 341 339 338 338 338 338 337 337 337 336 336 336 337 337 337 337 336 334 337 337 337 337 337 337 337 336 336 336 337 335 334 334 334
339 340 340 340 339 339 338 338 338 337 337 337 336 336 334 333 332 332 332 332 333 333 332 332 332 333 333 334 334 334 334 333 334 334 334 333 334 333
336 336 337 337 337 337 337 335 335 335 336 336 334 335 333 330 327 327 326 328 331 332 332 332 332 333 333 332 331 331 331 330 330 330 328 325 322 320
335 335 334 334 333 332 332 332 333 334 334 333 333 334 331 329 328 326 324 324 323 324 326 326 327 326 324 323 322 321 319 318 319 318 317 315 313 311
331 330 329 330 330 330 330 330 330 330 330 330 330 329 325 326 325 323 318 317 316 316 317 317 319 317 313 314 313 314 312 312 311 310 308 306 304 302
324 325 325 326 326 326 326 326 327 328 328 328 323 321 319 320 322 321 319 318 316 313 311 310 310 311 310 310 309 308 308 307 305 305 303 303 303 303
319 317 316 315 317 317 319 321 323 324 325 322 318 317 315 318 320 321 320 318 314 314 314 313 312 312 311 312 311 309 307 305 304 304 305 304 304 303
316 316 316 315 314 315 314 313 312 312 313 313 313 312 312 316 320 319 317 315 314 314 315 312 313 312 312 311 310 309 309 308 306 305 304 303 303 303
314 314 314 312 310 312 313 313 311 309 306 307 307 308 309 312 314 315 315 318 317 313 311 310 310 309 310 311 309 307 307 305 303 303 303 303 305 305
312 310 310 310 311 312 314 314 313 311 308 307 306 306 306 303 303 308 309 314 314 314 309 313 309 309 309 307 307 308 306 305 305 304 304 306 306 305
312 310 309 310 310 310 311 312 311 303 301 300 301 301 301 300 300 301 306 307 307 307 304 309 309 309 308 307 305 303 302 303 306 307 306 306 306 306
308 307 306 308 308 307 308 307 303 301 302 303 302 300 300 299 299 300 302 304 305 307 305 305 304 304 304 305 305 303 303 304 304 304 304 301 300 300
305 302 301 301 301 300 299 300 301 302 302 301 300 299 298 299 299 300 300 302 305 305 303 304 303 303 302 302 302 302 301 303 303 303 303 303 302 302
301 301 300 299 300 299 300 300 300 299 299 299 298 298 298 298 298 299 299 300 302 304 305 303 304 303 302 302 301 301 301 302 303 302 302 301 300 300
302 302 302 301 301 301 300 300 300 300 299 298 298 298 298 298 298 298 298 299 299 300 301 302 304 305 304 303 300 300 300 301 301 301 301 300 300 300
303 302 302 302 302 302 301 300 300 299 298 298 297 297 297 297 297 297 298 298 299 299 299 299 300 301 301 299 298 299 300 300 300 300 300 300 300 300
302 302 302 301 301 300 300 299 298 298 297 297 297 296 296 296 297 297 297 298 299 300 300 299 300 300 300 300 299 297 299 299 299 300 300 299 299 299
301 302 302 301 300 299 299 299 298 297 297 297 297 296 296 296 296 296 296 297 298 299 299 298 298 299 299 299 298 298 296 297 299 299 299 300 299 298
302 301 302 301 299 299 299 299 299 298 298 297 297 297 297 296 296 295 296 294 295 297 298 297 296 293 296 297 298 297 298 297 296 299 300 300 299 299
302 302 301 301 299 299 299 298 299 298 298 297 297 297 297 296 295 295 295 296 296 297 296 296 295 295 296 296 297 298 299 299 298 297 295 296 298 299
301 301 301 301 300 299 299 298 298 298 298 297 297 297 296 296 295 295 295 295 296 296 295 296 296 296 296 297 296 298 299 299 299 299 299 297 297 297
Wind_Speed
13 12 14 14 18 18 16 18 18 7 4 1 1 6 11 8 9 10 9 10 7 6 8 11 13 18 20 23 22 20 20 20 19 18 17 17 17 18
8 9 11 10 14 20 22 20 16 9 3 2 2 8 10 8 6 8 13 10 6 4 1 3 7 11 14 17 18 19 21 20 19 18 17 15 14 13
9 9 11 11 12 13 15 15 12 8 4 2 3 4 4 3 2 4 7 7 7 5 4 2 1 3 5 8 12 13 15 14 14 15 16 14 15 16
2 4 6 10 12 13 12 12 12 10 11 7 4 3 1 3 5 6 8 8 6 3 4 3 3 2 1 1 4 5 5 6 9 14 16 16 20 20
5 4 2 7 11 13 13 10 8 5 5 3 1 0 2 3 6 10 10 11 11 9 6 5 6 5 6 8 10 11 11 13 15 18 18 19 16 14
10 8 7 6 7 5 5 4 4 4 2 0 1 2 2 3 4 6 7 8 10 11 11 12 13 14 16 17 17 16 16 16 14 12 9 5 4 3
15 14 12 9 7 6 4 3 3 4 4 5 5 8 11 7 7 1 7 10 13 11 13 13 12 15 16 17 17 17 13 13 12 12 9 6 4 5
15 16 14 12 11 9 7 6 5 5 5 6 7 8 10 7 5 4 11 5 4 8 12 14 12 15 14 15 15 16 16 15 13 15 11 9 10 9
13 13 14 15 15 15 19 18 17 13 12 10 11 8 7 9 6 6 6 6 5 10 11 8 6 9 8 10 11 13 14 15 15 15 12 10 11 9
16 15 15 14 15 15 17 21 22 22 20 18 16 14 13 12 10 9 11 14 12 7 4 4 5 6 5 6 8 9 10 11 11 13 12 9 7 7
15 14 14 14 13 14 14 16 17 18 20 21 20 19 17 13 8 6 5 1 6 6 6 5 4 8 8 10 7 6 7 7 8 10 11 12 7 8
15 16 15 13 10 10 11 11 13 12 11 12 13 14 16 17 17 15 10 7 4 4 6 2 4 2 3 5 6 5 5 6 7 7 9 11 12 11
13 12 13 11 11 10 11 11 12 13 14 15 13 13 14 16 15 14 12 10 7 8 7 4 3 2 3 3 3 3 2 2 7 11 13 15 15 17
15 12 12 10 11 13 16 15 13 12 10 10 11 11 11 11 10 10 10 10 9 8 6 6 5 5 3 3 3 2 1 2 2 4 4 3 2 1
13 15 15 15 17 16 15 14 11 9 9 11 11 10 10 10 8 7 8 8 9 7 6 7 6 6 6 6 4 4 6 1 2 3 3 3 5 6
16 13 14 14 14 14 12 13 12 11 10 11 10 9 8 9 9 8 8 6 6 7 6 6 5 4 3 4 5 6 6 4 1 2 3 5 6 7
13 9 8 10 10 10 10 9 9 9 10 9 9 8 8 8 8 7 7 6 6 5 4 3 2 1 2 3 7 7 6 2 2 2 5 7 6 6
7 8 7 7 6 6 6 6 7 7 8 8 9 8 8 7 6 6 6 6 5 5 5 3 2 2 2 3 5 5 1 3 3 4 7 8 8 3
8 7 6 5 4 4 4 5 5 6 6 7 7 6 6 5 5 5 5 5 4 4 5 5 5 5 5 3 2 3 6 5 4 5 5 7 7 6
6 5 5 5 4 3 3 4 5 5 5 4 5 6 6 5 4 4 4 4 3 1 1 3 5 5 6 7 7 8 7 7 7 8 8 7 10 10
4 4 5 5 4 4 3 3 2 3 2 2 2 2 4 3 2 2 2 2 3 1 2 3 5 7 6 6 8 4 2 5 5 7 7 9 9 9
6 6 7 7 7 6 4 3 1 4 5 4 3 2 1 2 2 2 2 2 1 1 2 4 5 5 3 4 3 2 2 4 6 8 6 8 8 5
6 7 8 9 10 9 7 5 3 2 4 6 6 5 4 4 3 3 3 2 3 2 3 4 3 2 3 2 3 4 1 4 5 5 3 5 3 3
Wind_Direction
227 227 236 247 237 234 239 246 248 253 261 211 234 324 333 319 259 239 241 236 227 239 244 245 247 237 232 232 235 233 234 232 237 230 229 225 225 222
227 228 238 236 229 228 228 230 232 224 216 201 316 327 345 327 321 199 215 168 171 139 104 260 237 228 232 237 237 235 234 240 237 233 221 218 218 208
234 234 233 223 213 210 208 207 207 205 211 238 257 319 341 5 77 125 147 142 168 204 180 115 138 227 238 241 244 241 240 240 234 213 202 199 193 188
247 237 223 219 219 214 209 216 222 236 218 216 242 264 190 132 111 110 106 109 111 150 202 225 291 276 262 280 248 225 207 190 184 178 173 172 172 172
86 102 152 216 205 225 226 201 175 179 204 165 107 82 129 113 94 98 94 95 91 90 93 107 118 120 125 119 112 114 118 122 128 134 135 137 133 136
95 95 88 74 69 85 102 102 115 131 127 282 153 204 176 144 139 115 89 81 91 102 108 107 118 117 118 117 117 115 114 119 121 118 120 118 124 140
96 96 91 93 90 85 85 76 69 58 61 61 63 68 51 55 27 104 104 106 81 88 102 100 112 107 97 105 107 107 100 98 95 100 89 86 112 119
83 84 83 81 73 65 59 61 69 74 66 75 55 63 44 39 48 112 143 135 103 103 87 85 96 100 107 115 118 121 124 110 107 104 107 114 97 87
83 81 79 77 77 75 73 75 79 79 80 84 81 66 45 34 40 121 141 123 116 136 125 106 128 122 132 145 149 146 133 132 133 137 135 121 111 100
80 81 80 75 79 81 81 77 72 70 72 74 74 70 66 62 77 96 108 102 100 115 118 102 112 97 124 152 165 154 148 150 147 139 133 137 129 123
83 83 84 82 80 85 85 85 83 78 72 78 80 79 76 75 76 71 70 113 100 58 48 96 94 102 115 134 152 146 151 156 162 165 172 177 231 230
91 89 89 90 87 90 93 96 90 84 85 80 70 64 60 57 62 57 52 63 81 131 28 86 119 128 111 76 85 119 159 180 189 205 214 252 255 243
106 96 90 87 83 84 95 102 106 106 97 88 75 62 55 51 48 49 50 50 61 77 44 83 110 102 88 122 86 86 99 217 234 240 252 257 252 251
107 99 95 93 90 90 92 100 104 94 84 73 62 53 47 41 38 43 53 60 63 75 59 58 81 64 70 95 69 62 334 313 253 221 207 194 207 211
105 106 104 101 94 87 95 95 82 77 72 71 62 50 42 37 42 49 54 59 60 72 67 74 83 77 63 54 35 5 331 330 269 225 226 257 279 281
108 109 106 99 99 95 84 78 78 78 77 72 64 50 43 44 49 48 50 49 59 70 72 82 74 48 36 33 357 353 344 298 245 226 279 289 299 297
124 116 106 99 96 90 83 81 80 78 74 68 58 47 44 48 53 45 41 39 45 32 48 45 7 10 8 350 336 340 333 255 246 284 292 303 293 316
127 126 116 104 97 94 87 84 82 82 82 72 54 44 42 44 43 41 33 30 28 24 12 358 334 247 222 161 33 352 6 325 303 284 283 292 299 310
130 128 124 116 115 102 93 96 97 105 97 75 54 51 49 49 39 40 29 30 35 41 64 46 30 2 337 358 53 27 335 334 319 282 280 279 312 319
135 145 148 145 141 126 123 120 119 131 112 89 63 60 49 37 33 27 23 14 14 44 54 13 6 358 341 352 327 324 322 293 305 306 303 277 277 286
179 190 182 176 174 162 150 159 180 179 168 163 89 47 28 14 22 4 9 357 324 317 330 6 353 318 295 294 271 298 2 327 319 295 297 289 304 315
232 232 220 211 205 200 193 192 214 214 218 220 223 247 328 349 342 328 340 331 245 261 320 321 332 327 294 281 313 325 321 351 335 338 280 266 289 303
243 240 240 236 225 219 220 227 242 255 227 226 232 240 257 301 307 268 274 266 214 272 311 306 314 308 311 292 311 315 303 309 346 350 53 339 311 317